Regional Weather Roundup
Issued by NWS

Home | Current Version | Previous Version | Graphics & Text | Print | Product List | Glossary On
Versions: 1 2 3 4 5 6 7 8 9 10 11 12 13 14 15 16 17 18 19 20 21 22 23 24 25 26 27 28 29 30 31 32 33 34 35 36 37 38 39 40 41 42 43 44 45 46 47 48 49 50
000
ASUS43 KFSD 231402
RWRSD

WEATHER ROUNDUP FOR SOUTH DAKOTA
NATIONAL WEATHER SERVICE SIOUX FALLS SD
800 AM CST MON JAN 23 2017

NOTE: "FAIR" INDICATES FEW OR NO CLOUDS BELOW 12,000 FEET WITH NO
SIGNIFICANT WEATHER AND/OR OBSTRUCTIONS TO VISIBILITY.


SDZ001>005-009-010-012>017-231500-
NORTHWEST AND NORTH CENTRAL SOUTH DAKOTA

CITY           SKY/WX    TMP DP  RH WIND       PRES   REMARKS
BUFFALO          N/A     20  14  77 NE3       29.63F
FAITH            N/A     25  22  88 E7        29.74F WCI  17
MOBRIDGE       CLOUDY    28  23  81 SW3       29.79S
$$

SDZ012>016-024>037-041>051-057-063-072>074-231500-
SOUTHWEST AND SOUTH CENTRAL SOUTH DAKOTA

CITY           SKY/WX    TMP DP  RH WIND       PRES   REMARKS
RAPID CTY ARPT CLOUDY    22  20  92 E3        29.67S
PIERRE         CLOUDY    26  23  88 SE5       29.81F WCI  20
CUSTER         CLOUDY    25  13  60 W3        29.59F
ELLSWORTH AFB  CLOUDY    23  21  93 CALM      29.65F
PHILIP         FOG       23  22  96 E8        29.75S VSB 3/4 WCI  14
PINE RIDGE     CLOUDY    29  22  75 S7        29.67S WCI  22
SPEARFISH      MOCLDY    19  18  93 NE5       29.63F WCI  13
WINNER         CLOUDY    25  22  88 SE9       29.79F WCI  15
$$

SDZ004>011-016>023-039-040-231500-
NORTHEAST SOUTH DAKOTA

CITY           SKY/WX    TMP DP  RH WIND       PRES   REMARKS
ABERDEEN       CLOUDY    30  24  78 SW3       29.84R
WATERTOWN      CLOUDY    28  26  92 W8        29.81R WCI  20
BROOKINGS      CLOUDY    29  27  92 W7        29.83R WCI  22
SISSETON         N/A     32  29  88 NW7       29.81R WCI  26
$$

SDZ017-020-022-023-036>040-048>070-231500-
SOUTHEAST SOUTH DAKOTA

CITY           SKY/WX    TMP DP  RH WIND       PRES   REMARKS
SIOUX FALLS    FLURRIES  30  28  92 W5        29.86R WCI  25
HURON          CLOUDY    29  26  89 CALM      29.86R
CHAMBERLAIN    CLOUDY    30  28  92 SE3       29.83F
MITCHELL       CLOUDY    31  26  82 CALM      29.87S
YANKTON        CLOUDY    30  23  74 CALM      29.88S
$$

ABBREVIATIONS USED IN REMARKS
   TC - TEMPERATURE IN CELSIUS
  WCI - WIND CHILL INDEX
   HX - HEAT INDEX
  VSB - VISIBILITY





USA.gov is the U.S. government's official web portal to all federal, state and local government web resources and services.